Time,TemperatureF,DewpointF,PressureIn,WindDirection,WindDirectionDegrees,WindSpeedMPH,WindSpeedGustMPH,Humidity,HourlyPrecipIn,Conditions,Clouds,dailyrainin,SoftwareType,DateUTC
2013-04-03 00:28:00,36.1,11.0,30.09,North,1,1.0,5.0,36,0.00,,,0.00,weatherlink.com 1.10,2013-04-03 04:28:00,
2013-04-03 00:43:00,35.7,11.0,30.09,North,354,1.0,5.0,36,0.00,,,0.00,weatherlink.com 1.10,2013-04-03 04:43:00,
2013-04-03 00:58:00,35.5,11.0,30.09,NE,53,2.0,9.0,36,0.00,,,0.00,weatherlink.com 1.10,2013-04-03 04:58:00,
2013-04-03 01:13:00,35.2,11.0,30.10,NW,326,1.0,5.0,36,0.00,,,0.00,weatherlink.com 1.10,2013-04-03 05:13:00,
2013-04-03 01:28:00,35.0,10.0,30.10,North,353,1.0,3.0,36,0.00,,,0.00,weatherlink.com 1.10,2013-04-03 05:28:00,
2013-04-03 01:43:00,34.6,11.0,30.10,ENE,76,1.0,2.0,37,0.00,,,0.00,weatherlink.com 1.10,2013-04-03 05:43:00,
2013-04-03 01:58:00,34.5,11.0,30.10,NNE,33,1.0,4.0,37,0.00,,,0.00,weatherlink.com 1.10,2013-04-03 05:58:00,
2013-04-03 02:13:00,34.4,10.0,30.09,NNE,20,5.0,7.0,37,0.00,,,0.00,weatherlink.com 1.10,2013-04-03 06:13:00,
2013-04-03 02:28:00,34.5,11.0,30.09,NNW,335,1.0,8.0,37,0.00,,,0.00,weatherlink.com 1.10,2013-04-03 06:28:00,
2013-04-03 02:43:00,34.3,11.0,30.09,NNE,30,1.0,8.0,38,0.00,,,0.00,weatherlink.com 1.10,2013-04-03 06:43:00,
2013-04-03 02:58:00,34.2,11.0,30.09,NW,309,0.0,6.0,38,0.00,,,0.00,weatherlink.com 1.10,2013-04-03 06:58:00,
2013-04-03 03:13:00,33.8,11.0,30.09,NE,40,0.0,4.0,39,0.00,,,0.00,weatherlink.com 1.10,2013-04-03 07:13:00,
2013-04-03 03:28:00,33.7,12.0,30.09,SE,146,1.0,3.0,40,0.00,,,0.00,weatherlink.com 1.10,2013-04-03 07:28:00,
2013-04-03 03:43:00,33.5,11.0,30.09,NNE,18,2.0,4.0,40,0.00,,,0.00,weatherlink.com 1.10,2013-04-03 07:43:00,
2013-04-03 03:58:00,33.4,12.0,30.09,NE,39,2.0,4.0,42,0.00,,,0.00,weatherlink.com 1.10,2013-04-03 07:58:00,
2013-04-03 04:13:00,33.2,13.0,30.09,NNE,30,0.0,2.0,43,0.00,,,0.00,weatherlink.com 1.10,2013-04-03 08:13:00,
2013-04-03 04:28:00,33.1,13.0,30.09,ESE,106,0.0,2.0,44,0.00,,,0.00,weatherlink.com 1.10,2013-04-03 08:28:00,
2013-04-03 04:43:00,33.1,12.0,30.10,ESE,120,0.0,3.0,42,0.00,,,0.00,weatherlink.com 1.10,2013-04-03 08:43:00,
2013-04-03 04:58:00,33.3,12.0,30.10,SE,132,0.0,3.0,42,0.00,,,0.00,weatherlink.com 1.10,2013-04-03 08:58:00,
2013-04-03 05:13:00,33.1,13.0,30.10,SSE,155,0.0,4.0,43,0.00,,,0.00,weatherlink.com 1.10,2013-04-03 09:13:00,
2013-04-03 05:28:00,32.8,12.0,30.11,SE,144,0.0,3.0,43,0.00,,,0.00,weatherlink.com 1.10,2013-04-03 09:28:00,
2013-04-03 05:43:00,32.5,13.0,30.11,SSW,212,4.0,5.0,44,0.00,,,0.00,weatherlink.com 1.10,2013-04-03 09:43:00,
2013-04-03 05:58:00,32.5,13.0,30.12,SE,135,2.0,3.0,44,0.00,,,0.00,weatherlink.com 1.10,2013-04-03 09:58:00,
2013-04-03 06:13:00,32.4,13.0,30.12,ESE,115,0.0,4.0,44,0.00,,,0.00,weatherlink.com 1.10,2013-04-03 10:13:00,
2013-04-03 06:28:00,32.2,13.0,30.13,SE,139,0.0,3.0,46,0.00,,,0.00,weatherlink.com 1.10,2013-04-03 10:28:00,
2013-04-03 06:43:00,32.1,13.0,30.14,NNE,12,2.0,9.0,46,0.00,,,0.00,weatherlink.com 1.10,2013-04-03 10:43:00,
2013-04-03 06:58:00,32.4,14.0,30.14,SE,137,3.0,9.0,46,0.00,,,0.00,weatherlink.com 1.10,2013-04-03 10:58:00,
2013-04-03 07:14:00,32.7,14.0,30.15,North,357,1.0,4.0,47,0.00,,,0.00,weatherlink.com 1.10,2013-04-03 11:14:00,
2013-04-03 07:29:00,32.9,15.0,30.16,NE,34,1.0,5.0,47,0.00,,,0.00,weatherlink.com 1.10,2013-04-03 11:29:00,
2013-04-03 07:44:00,33.4,15.0,30.16,NE,44,7.0,7.0,47,0.00,,,0.00,weatherlink.com 1.10,2013-04-03 11:44:00,
2013-04-03 07:59:00,34.0,15.0,30.17,SSE,159,4.0,4.0,45,0.00,,,0.00,weatherlink.com 1.10,2013-04-03 11:59:00,
2013-04-03 08:14:00,34.6,15.0,30.17,ENE,71,1.0,5.0,44,0.00,,,0.00,weatherlink.com 1.10,2013-04-03 12:14:00,
2013-04-03 08:29:00,35.2,15.0,30.17,North,4,3.0,4.0,44,0.00,,,0.00,weatherlink.com 1.10,2013-04-03 12:29:00,
2013-04-03 08:44:00,35.5,15.0,30.16,South,183,5.0,8.0,43,0.00,,,0.00,weatherlink.com 1.10,2013-04-03 12:44:00,
2013-04-03 08:59:00,36.0,14.0,30.16,East,80,5.0,12.0,41,0.00,,,0.00,weatherlink.com 1.10,2013-04-03 12:59:00,
2013-04-03 09:14:00,36.5,15.0,30.16,NW,310,1.0,8.0,41,0.00,,,0.00,weatherlink.com 1.10,2013-04-03 13:14:00,
2013-04-03 09:29:00,37.0,15.0,30.15,NNW,342,4.0,6.0,41,0.00,,,0.00,weatherlink.com 1.10,2013-04-03 13:29:00,
2013-04-03 09:44:00,37.6,14.0,30.15,NE,40,2.0,10.0,38,0.00,,,0.00,weatherlink.com 1.10,2013-04-03 13:44:00,
2013-04-03 09:59:00,39.2,15.0,30.15,NNE,18,5.0,8.0,37,0.00,,,0.00,weatherlink.com 1.10,2013-04-03 13:59:00,
2013-04-03 10:14:00,39.2,14.0,30.15,NE,41,4.0,9.0,36,0.00,,,0.00,weatherlink.com 1.10,2013-04-03 14:14:00,
2013-04-03 10:29:00,39.5,13.0,30.14,NW,309,2.0,11.0,34,0.00,,,0.00,weatherlink.com 1.10,2013-04-03 14:29:00,
2013-04-03 10:44:00,40.0,15.0,30.15,North,11,7.0,10.0,36,0.00,,,0.00,weatherlink.com 1.10,2013-04-03 14:44:00,
2013-04-03 10:59:00,41.1,15.0,30.15,NE,41,2.0,9.0,34,0.00,,,0.00,weatherlink.com 1.10,2013-04-03 14:59:00,
2013-04-03 11:14:00,41.6,13.0,30.15,ESE,115,5.0,10.0,31,0.00,,,0.00,weatherlink.com 1.10,2013-04-03 15:14:00,
2013-04-03 11:29:00,41.5,12.0,30.15,NE,51,7.0,10.0,30,0.00,,,0.00,weatherlink.com 1.10,2013-04-03 15:29:00,
2013-04-03 11:44:00,42.4,13.0,30.15,NNW,342,4.0,8.0,30,0.00,,,0.00,weatherlink.com 1.10,2013-04-03 15:44:00,
2013-04-03 11:59:00,42.8,13.0,30.15,SSE,158,4.0,11.0,30,0.00,,,0.00,weatherlink.com 1.10,2013-04-03 15:59:00,
2013-04-03 12:14:00,43.9,13.0,30.15,NW,321,10.0,11.0,28,0.00,,,0.00,weatherlink.com 1.10,2013-04-03 16:14:00,
2013-04-03 12:29:00,44.1,13.0,30.15,NW,315,1.0,9.0,28,0.00,,,0.00,weatherlink.com 1.10,2013-04-03 16:29:00,
2013-04-03 12:44:00,44.4,13.0,30.14,North,358,5.0,10.0,28,0.00,,,0.00,weatherlink.com 1.10,2013-04-03 16:44:00,
2013-04-03 12:59:00,44.9,13.0,30.14,NE,39,4.0,13.0,27,0.00,,,0.00,weatherlink.com 1.10,2013-04-03 16:59:00,
2013-04-03 13:14:00,45.2,13.0,30.13,NE,39,2.0,13.0,27,0.00,,,0.00,weatherlink.com 1.10,2013-04-03 17:14:00,
2013-04-03 13:44:00,46.2,12.0,30.12,North,8,7.0,11.0,25,0.00,,,0.00,weatherlink.com 1.10,2013-04-03 17:44:00,
2013-04-03 13:59:00,46.6,12.0,30.11,North,11,8.0,11.0,25,0.00,,,0.00,weatherlink.com 1.10,2013-04-03 17:59:00,
2013-04-03 14:15:00,46.9,12.0,30.12,NNW,342,6.0,13.0,24,0.00,,,0.00,weatherlink.com 1.10,2013-04-03 18:15:00,
2013-04-03 14:30:00,47.2,13.0,30.11,SSW,212,8.0,11.0,25,0.00,,,0.00,weatherlink.com 1.10,2013-04-03 18:30:00,
2013-04-03 14:44:00,47.6,12.0,30.10,NNW,346,9.0,10.0,24,0.00,,,0.00,weatherlink.com 1.10,2013-04-03 18:44:00,
2013-04-03 14:59:00,47.4,11.0,30.10,North,11,9.0,10.0,23,0.00,,,0.00,weatherlink.com 1.10,2013-04-03 18:59:00,
2013-04-03 15:14:00,47.9,12.0,30.10,NNW,333,5.0,9.0,23,0.00,,,0.00,weatherlink.com 1.10,2013-04-03 19:14:00,
2013-04-03 15:30:00,47.3,10.0,30.10,North,5,6.0,13.0,22,0.00,,,0.00,weatherlink.com 1.10,2013-04-03 19:30:00,
2013-04-03 15:45:00,47.6,10.0,30.11,NNE,27,7.0,11.0,22,0.00,,,0.00,weatherlink.com 1.10,2013-04-03 19:45:00,
2013-04-03 16:00:00,46.7,11.0,30.11,NNE,15,2.0,10.0,23,0.00,,,0.00,weatherlink.com 1.10,2013-04-03 20:00:00,
2013-04-03 16:15:00,46.7,11.0,30.11,North,350,4.0,11.0,23,0.00,,,0.00,weatherlink.com 1.10,2013-04-03 20:15:00,
2013-04-03 16:30:00,46.5,10.0,30.11,NE,56,2.0,11.0,23,0.00,,,0.00,weatherlink.com 1.10,2013-04-03 20:30:00,
2013-04-03 16:45:00,46.3,11.0,30.11,NNE,29,2.0,12.0,24,0.00,,,0.00,weatherlink.com 1.10,2013-04-03 20:45:00,
2013-04-03 17:00:00,46.0,11.0,30.11,NNE,30,7.0,16.0,24,0.00,,,0.00,weatherlink.com 1.10,2013-04-03 21:00:00,
2013-04-03 17:30:00,45.3,9.0,30.13,ENE,77,4.0,11.0,23,0.00,,,0.00,weatherlink.com 1.10,2013-04-03 21:30:00,
2013-04-03 17:45:00,44.8,10.0,30.14,NNE,19,2.0,15.0,24,0.00,,,0.00,weatherlink.com 1.10,2013-04-03 21:45:00,
2013-04-03 18:00:00,44.3,9.0,30.15,NNE,20,6.0,12.0,24,0.00,,,0.00,weatherlink.com 1.10,2013-04-03 22:00:00,
2013-04-03 18:15:00,44.2,10.0,30.15,ENE,75,2.0,10.0,25,0.00,,,0.00,weatherlink.com 1.10,2013-04-03 22:15:00,
2013-04-03 18:30:00,43.7,9.0,30.17,NNW,340,2.0,11.0,24,0.00,,,0.00,weatherlink.com 1.10,2013-04-03 22:30:00,
2013-04-03 18:45:00,43.1,9.0,30.18,NW,309,2.0,13.0,25,0.00,,,0.00,weatherlink.com 1.10,2013-04-03 22:45:00,
2013-04-03 19:00:00,42.6,10.0,30.18,NE,40,8.0,11.0,26,0.00,,,0.00,weatherlink.com 1.10,2013-04-03 23:00:00,
2013-04-03 19:15:00,42.0,9.0,30.20,NNW,344,7.0,15.0,26,0.00,,,0.00,weatherlink.com 1.10,2013-04-03 23:15:00,
2013-04-03 19:30:00,41.5,10.0,30.20,North,6,5.0,11.0,27,0.00,,,0.00,weatherlink.com 1.10,2013-04-03 23:30:00,
2013-04-03 19:45:00,41.1,9.0,30.21,North,9,3.0,9.0,27,0.00,,,0.00,weatherlink.com 1.10,2013-04-03 23:45:00,
2013-04-03 20:00:00,40.8,10.0,30.22,NE,37,1.0,10.0,28,0.00,,,0.00,weatherlink.com 1.10,2013-04-04 00:00:00,
2013-04-03 20:15:00,40.5,10.0,30.23,NNE,17,1.0,9.0,29,0.00,,,0.00,weatherlink.com 1.10,2013-04-04 00:15:00,
2013-04-03 20:30:00,40.0,10.0,30.24,NNE,12,7.0,10.0,29,0.00,,,0.00,weatherlink.com 1.10,2013-04-04 00:30:00,
2013-04-03 20:45:00,39.7,10.0,30.25,NNE,30,2.0,11.0,30,0.00,,,0.00,weatherlink.com 1.10,2013-04-04 00:45:00,
2013-04-03 21:00:00,39.3,10.0,30.25,NE,39,3.0,8.0,30,0.00,,,0.00,weatherlink.com 1.10,2013-04-04 01:00:00,
2013-04-03 21:15:00,39.0,11.0,30.27,NNE,18,1.0,7.0,31,0.00,,,0.00,weatherlink.com 1.10,2013-04-04 01:15:00,
2013-04-03 21:30:00,38.6,11.0,30.27,North,355,0.0,7.0,32,0.00,,,0.00,weatherlink.com 1.10,2013-04-04 01:30:00,
2013-04-03 21:45:00,38.3,11.0,30.27,North,11,6.0,7.0,33,0.00,,,0.00,weatherlink.com 1.10,2013-04-04 01:45:00,
2013-04-03 22:00:00,38.0,11.0,30.28,North,350,11.0,14.0,33,0.00,,,0.00,weatherlink.com 1.10,2013-04-04 02:00:00,
2013-04-03 22:15:00,37.7,12.0,30.28,NE,39,2.0,10.0,34,0.00,,,0.00,weatherlink.com 1.10,2013-04-04 02:15:00,
2013-04-03 22:30:00,37.4,12.0,30.28,WSW,256,0.0,13.0,35,0.00,,,0.00,weatherlink.com 1.10,2013-04-04 02:30:00,
2013-04-03 22:45:00,37.1,12.0,30.28,NNW,338,3.0,7.0,36,0.00,,,0.00,weatherlink.com 1.10,2013-04-04 02:45:00,
2013-04-03 23:00:00,36.9,13.0,30.29,NW,309,3.0,10.0,37,0.00,,,0.00,weatherlink.com 1.10,2013-04-04 03:00:00,
2013-04-03 23:15:00,36.5,13.0,30.30,NNE,19,1.0,7.0,38,0.00,,,0.00,weatherlink.com 1.10,2013-04-04 03:15:00,
2013-04-03 23:30:00,36.2,13.0,30.30,NW,325,5.0,11.0,39,0.00,,,0.00,weatherlink.com 1.10,2013-04-04 03:30:00,
2013-04-03 23:45:00,35.9,14.0,30.29,NNW,335,6.0,8.0,40,0.00,,,0.00,weatherlink.com 1.10,2013-04-04 03:45:00,